Tracking 22993 objects as of 10-May-2021
HD Live streaming from Space Station
objects crossing your sky now

NINGXIA-1 5

Track NINGXIA-1 5 now!
10-day predictions


NORAD ID: 44783
Int'l Code: 2019-076E
Perigee: 886.6 km
Apogee: 903.7 km
Inclination: 45.0 °
Period: 102.7 minutes
Semi major axis: 7266 km
RCS: Unknown
Launch date: November 13, 2019
Source: People's Republic of China (PRC)
Launch site: Taiyaun Space Center, China (TSC)
aabbcc
Your satellite tracking list
Your tracking list is empty




NASA's NSSDC Master Catalog

Two Line Element Set (TLE):
1 44783U 19076E   21129.66819968 -.00000114  00000-0  10477-4 0  9997
2 44783  45.0065 228.4835 0011807 319.0572  40.9375 14.01672233 76240
Source of the keplerian elements: AFSPC